Tracking 31011 objects as of 12-Jul-2025
HD Live streaming from Space Station
objects crossing your sky now

CZ-6A DEB

Track CZ-6A DEB now!
10-day predictions


NORAD ID: 56660
Int'l Code: 2022-151AGL
Perigee: 707.2 km
Apogee: 863.7 km
Inclination: 98.7 °
Period: 100.4 minutes
Semi major axis: 7156 km
RCS: Unknown
Launch date: November 11, 2022
Source: People's Republic of China (PRC)
Launch site: Taiyaun Space Center, China (TSC)

Note: This is SATELLITE DEBRIS
Your satellite tracking list
Your tracking list is empty




NASA's NSSDC Master Catalog

Two Line Element Set (TLE):
1 56660U 22151AGL 25188.99533315  .00003365  00000-0  11415-2 0  9997
2 56660  98.6833 204.7015 0109390  30.7383 330.0148 14.34025221115018
Source of the keplerian elements: AFSPC